Regional Weather Roundup
Issued by NWS

Home | Current Version | Previous Version | Text Only | Print | Product List | Glossary On
Versions: 1 2 3 4 5 6 7 8 9 10 11 12 13 14 15 16 17 18 19 20 21 22 23 24 25 26 27 28 29 30 31 32 33 34 35 36 37 38 39 40 41 42 43 44 45 46 47 48 49 50
000
ASUS44 KFWD 252315
RWRTX
NORTH TEXAS HOURLY WEATHER ROUNDUP
NATIONAL WEATHER SERVICE FORT WORTH TX
500 PM CST SAT FEB 25 2017

NOTE: "FAIR" INDICATES FEW OR NO CLOUDS BELOW 12,000 FEET WITH NO
SIGNIFICANT WEATHER AND/OR OBSTRUCTIONS TO VISIBILITY.

TXZ118-119-260000-
DALLAS/FORT WORTH METROPLEX

CITY           SKY/WX    TMP DP  RH WIND       PRES   REMARKS
DFW AIRPORT    MOSUNNY   54  20  26 VRB3      30.10F
DALLAS LOVE    SUNNY     55  15  20 CALM      30.11F
FTW MEACHAM    SUNNY     54  19  25 VRB6      30.10F
DAL-EXECUTIVE  SUNNY     54  18  24 E5        30.10F
FTW-ALLIANCE   SUNNY     53  17  24 CALM      30.11F
FTW-NAS-JRB    MOSUNNY   54  20  26 CALM      30.11F
FTW-SPINKS     SUNNY     54  21  28 E5        30.13F
ARLINGTON        N/A     54  19  25 E6        30.11F
GRAND PRAIRIE  SUNNY     54  19  26 CALM      30.13F
ADDISON        SUNNY     54  18  24 CALM      30.13F
MESQUITE       SUNNY     52  19  28 CALM      30.13F
LANCASTER      SUNNY     53  23  31 E5        30.13F
$$

TXZ091>094-102>105-117-120-121-131>134-260000-
NORTH CENTRAL TEXAS

CITY           SKY/WX    TMP DP  RH WIND       PRES   REMARKS
SHRMAN/DENISON SUNNY     50  17  27 E5        30.13S
GAINESVILLE    SUNNY     51  17  26 SE5       30.13S
BOWIE          SUNNY     52  17  25 S6        30.09F
BRIDGEPORT     SUNNY     53  20  27 S8        30.12F
DECATUR        SUNNY     51  15  24 CALM      30.10F HAZE
DENTON         SUNNY     51  18  27 VRB5      30.12F
MCKINNEY       SUNNY     52  19  27 NE3       30.12F
BONHAM         SUNNY     50  19  29 E5        30.13F
GREENVILLE     SUNNY     52  19  28 SE3       30.13F
ROCKWALL       SUNNY     53  21  28 MISG      30.12F
TERRELL        SUNNY     53  20  27 VRB3      30.13F
WAXAHACHIE     SUNNY     54  23  30 E6        30.12F
CLEBURNE       SUNNY     54  21  28 E7        30.11F
GRANBURY       SUNNY     55  23  28 E5        30.11F
$$

TXZ083>090-098>101-113>116-127>130-139>142-154-155-260000-
WESTERN NORTH TEXAS

CITY           SKY/WX    TMP DP  RH WIND       PRES   REMARKS
WICHITA FALLS  SUNNY     49  15  25 SE12      30.08F
WF-KICKAPOO    SUNNY     50  17  27 SE8       30.10F
VERNON         SUNNY     50   9  18 S10       30.08F
ABILENE        SUNNY     54  22  28 SE13      30.05F
ABILENE-DYESS  SUNNY     56  24  29 S6        30.03F
GRAHAM         SUNNY     55  23  28 S5        30.07F
BRECKENRIDGE   SUNNY     57  19  23 S6        30.06F
CISCO          SUNNY     54  23  30 SE8       30.06F
MINERAL WELLS  SUNNY     54  18  24 VRB3      30.08F
STEPHENVILLE   SUNNY     55  20  25 CALM      30.11F
COMANCHE       SUNNY     55  26  33 E8        30.07F
BROWNWOOD      SUNNY     57  23  26 SE10      30.06F
COLEMAN        SUNNY     57  24  28 S9        30.06F
$$

TXZ143>147-156>162-174-175-260000-
CENTRAL TEXAS

CITY           SKY/WX    TMP DP  RH WIND       PRES   REMARKS
WACO           SUNNY     55  26  32 E6        30.11F
WACO-TSTC      SUNNY     57  27  30 NE6       30.11F
WACO-MCGREGOR  SUNNY     55  27  34 NE6       30.11F
HILLSBORO      SUNNY     55  26  32 NE7       30.11S
CORSICANA      SUNNY     54  27  35 NE6       30.12F
MEXIA          SUNNY     54  27  35 NE6       30.09F
HEARNE         SUNNY     60  27  27 N6        30.09F
CAMERON        MOSUNNY   58  32  37 NE5       30.09F
KILLEEN        PTSUNNY   56  24  28 E8        30.07F
KILLEEN-SKYLRK MOSUNNY   57  29  34 E7        30.09F
FORT HOOD      PTSUNNY   56  25  30 E8        30.06F
GATESVILLE     MOSUNNY   55  28  35 E5        30.12R
HAMILTON       SUNNY     57  26  29 SE6       30.09S
LAMPASAS       MOSUNNY   58  26  28 E8        30.07S
$$

TXZ095>097-106>112-122>126-135>138-148>153-164>167-260000-
EAST TEXAS

CITY           SKY/WX    TMP DP  RH WIND       PRES   REMARKS
PARIS          SUNNY     52  18  25 CALM      30.12F
SULPHUR SPRNGS SUNNY     52  23  32 CALM      30.15F
MOUNT PLEASANT SUNNY     54  21  27 CALM      30.14F
GILMER         SUNNY     53  22  29 CALM      30.13S
MINEOLA        SUNNY     54  23  30 CALM      30.13F
TYLER          SUNNY     57  20  23 CALM      30.11F
LONGVIEW       SUNNY     57  23  26 CALM      30.12F
MARSHALL       SUNNY     55  18  23 CALM      30.14S
PALESTINE      SUNNY     58  28  30 NE5       30.11F
JACKSONVILLE   SUNNY     56  25  29 E3        30.13F
HENDERSON      SUNNY     57  24  27 E3        30.13F
CENTER         CLEAR     62  25  25 CALM      30.13S
NACOGDOCHES    SUNNY     61  27  27 NE3       30.09F
LUFKIN         SUNNY     61  25  25 VRB7      30.09F
$$

SUPPLEMENTAL OBSERVATIONS (CENTRAL)

CITY           SKY/WX    TMP DP  RH WIND       PRES   REMARKS
DENISON DAM      N/A     52  19  28 N1          N/A
CADDO GRASSLND   N/A     52  19  28 NE5         N/A
PAT MAYSE LAKE   N/A     52   7  16 SW2         N/A
GREENVILLE       N/A     54  23  30 NE3         N/A
CEDAR HILL       N/A     57  21  24 SE2         N/A
ATHENS           N/A     57  23  26 S2          N/A
LAKE LIMESTONE   N/A     57  27  30 NE8         N/A
MCGREGOR         N/A     55  28  35 NE8         N/A
TEMPLE           N/A     55  30  38 NE8         N/A
$$

SUPPLEMENTAL OBSERVATIONS (WEST)

CITY           SKY/WX    TMP DP  RH WIND       PRES   REMARKS
MILLERS CREEK    N/A     52  23  32 S7          N/A
POSSUM KINGDOM   N/A     55  23  28 SE6         N/A
LBJ GRASSLAND    N/A     54  18  24 SE6         N/A
GRANBURY         N/A     55  23  28 E6          N/A
COMANCHE         N/A     55  25  30 SE7         N/A
HAMBY            N/A     57  25  28 S9          N/A
IVIE RESERVOIR   N/A     59  28  31 E10         N/A
COLORADO BEND    N/A     59  25  27 S6          N/A
$$

SUPPLEMENTAL OBSERVATIONS (EAST)

CITY           SKY/WX    TMP DP  RH WIND       PRES   REMARKS
CLARKSVILLE      N/A     54  21  28 N1          N/A
TEXARKANA        N/A     55  19  24 NW1         N/A
LINDEN           N/A     57  19  23 E1          N/A
CADDO LAKE       N/A    N/A N/A N/A E3          N/A
GILMER           N/A     57  23  26 NW2         N/A
HENDERSON        N/A     57  23  26 NE5         N/A
LUFKIN           N/A     63  27  25 MISG        N/A
N SABINE NF      N/A     59  28  31 MISG        N/A
S SABINE NF      N/A     57  27  30 W3          N/A
$$

SUPPLEMENTAL OBSERVATIONS ARE A COLLECTION OF AUTOMATED INSTRUMENTS
THAT ARE MAINTAINED BY A VARIETY OF FEDERAL AND STATE AGENCIES.
CERTAIN ELEMENTS...SUCH AS HUMIDITY VALUES AND SUSTAINED WIND
SPEEDS...MAY BE APPROXIMATED.




USA.gov is the U.S. government's official web portal to all federal, state and local government web resources and services.